Home > Weather > Ndjamena > Past weeks

Flag for Chad Past Weather in Ndjamena, Chad — Yesterday and Last 2 Weeks

Now
75 °F

Passing clouds.


Feels Like: 74 °F
Forecast: 75 / 92 °F
Wind: 7 mph from Southwest

Location: Ndjamena

Current Time: Aug 24, 2016 at 7:55:57 AM

Latest Report: Aug 24, 2016 at 7:00 AM


Visibility: 5 mi

Pressure: 29.86 "Hg

Humidity: 94%

Dew Point: 73 °F

Location of NdjamenaLocation

Past Weather in Ndjamena — Graph

°F

Ndjamena Temperature Yesterday

Maximum temperature yesterday: 93 °F (at 3:00 PM)
Minimum temperature yesterday: 77 °F (at 6:00 AM)
Average temperature yesterday: 84 °F

High & Low Weather Summary for the Past Weeks

 TemperatureHumidityPressure
High95 °F (Aug 12, 2:00 PM)100% (Aug 9, 6:00 AM)30.01 "Hg (Aug 9, 6:00 AM)
Low72 °F (Aug 9, 8:00 AM)44% (Aug 11, 1:00 PM)29.77 "Hg (Aug 12, 4:00 PM)
Average82 °F81%29.88 "Hg
* Reported Aug 9 6:00 AM — Aug 24 6:00 AM, Ndjamena, Weather by CustomWeather, © 2016

Note: Actual official high and low records may vary slightly from our data, if they occured in-between our weather recording intervals... More about our weather records

Advertising

Ndjamena Weather History for the Previous 24 Hours

Scroll right to see more
 ConditionsComfort  
Time TempWeatherWind HumidityBarometerVisibility
6:00 AM
Wed, Aug 24
73 °FPassing clouds.7 mph100%29.83 "Hg5 mi
5:00 AM73 °FPassing clouds.5 mph100%29.83 "Hg5 mi
4:00 AM73 °FThunderstorms. Passing clouds.12 mph100%29.86 "Hg5 mi
3:00 AM75 °FThunderstorms. Passing clouds.13 mph94%29.86 "Hg5 mi
2:00 AM75 °FThunderstorms. Passing clouds.14 mph94%29.86 "Hg5 mi
1:00 AM77 °FThunderstorms. Passing clouds.10 mph94%29.89 "HgN/A
12:00 AM77 °FThunderstorms. Passing clouds.6 mph94%29.89 "Hg5 mi
11:00 PM
Tue, Aug 23
77 °FThunderstorms. Passing clouds.12 mph94%29.89 "Hg5 mi
10:00 PM79 °FThunderstorms. Passing clouds.12 mph89%29.86 "HgN/A
9:00 PM82 °FThunderstorms. Passing clouds.12 mph70%29.86 "HgN/A
8:00 PM86 °FThunderstorms. Passing clouds.2 mph66%29.83 "HgN/A
7:00 PM88 °FThunderstorms. Passing clouds.No wind66%29.80 "Hg4 mi
6:00 PM90 °FThunderstorms. Passing clouds.2 mph63%29.77 "Hg4 mi
5:00 PM93 °FScattered clouds.8 mph56%29.77 "HgN/A
4:00 PM93 °FScattered clouds.8 mph56%29.77 "HgN/A
3:00 PM93 °FScattered clouds.8 mph56%29.80 "HgN/A
1:00 PM91 °FScattered clouds.7 mph63%29.86 "HgN/A
12:00 PM91 °FScattered clouds.8 mph63%29.89 "HgN/A
11:00 AM90 °FPassing clouds.10 mph63%29.89 "HgN/A
10:00 AM86 °FSunny.12 mph75%29.92 "Hg10 mi
8:00 AM82 °FSunny.12 mph79%29.89 "Hg10 mi
7:00 AM79 °FSunny.9 mph89%29.89 "Hg10 mi
Weather by CustomWeather, © 2016

See weather overviewHow to use our weather pages